SL-8 R/B (20775 NORAD) Tracking and Keplerian Element Data

This shows tracking and keplerian element data for the satellite.

Feedback or suggestion? Click here.




ElementValue
Catalog20775
NameSL-8 R/B
Epoch Orbit40538
Epoch Day198.85456896
Epoch Year2018
RAAN83.4232
Inclination82.9283
Eccentricity0.0581508
Argument of Perigee201.6255
Mean Anonmoly155.945
Mean Motion14.32294856
Decay Rate1.107E-05
L11 20775U 90078B 18198.85456896 .00001107 00000-0 53431-4 0 9992
L22 20775 82.9283 83.4232 0581508 201.6255 155.9450 14.32294856405388

Live tracking and technical data element details for SL-8 R/B (NORAD 20775). SL-8 R/B can be tracked NOW for your location showing map with azimuth and elevation plus other details from your city location.

Track the satellite on the map from your city or location and see movement details for azimuth, elevation, latitude, longitude, range, height, and movement on the map or in text.







IsCatalogInMostPopularTable: catalog: 20775, numindb: 25
Update: records affected: 1



GetName: 20775 SL-8 R/B

Hit Count: updated at: Fri, 20 Jul 2018 20:30:48 GMT